Location: Newark
(46.2031°N, 3.4731°E)
Time: 15:55:51
(UTC+00:00)

Envisat - Pass Details

Date: 21 September 2019
Orbit: 764 x 766 km, 98.1° (Epoch: 15 October)

Event Time Altitude Azimuth Distance (km) Brightness Sun altitude
Rises 18:45:50 0° 195° (SSW) 3,220 6.3 -11.0°
Reaches altitude 10° 18:48:26 10° 207° (SSW) 2,298 5.7 -11.4°
Maximum altitude 18:52:45 28° 266° (W) 1,414 5.2 -12.2°
Drops below altitude 10° 18:57:06 10° 325° (NW) 2,313 6.3 -12.9°
Sets 18:59:45 0° 337° (NNW) 3,244 6.8 -13.3°
